GW2464 Weather Reports


Display with metric or nautical units.
time (UTC)temp
F
wind
direction
speed
MPH
gust
MPH
rain 1hr
in
rain 24hr
in
rain mn
in
humidity
%
barometer
mb
20260502182522 48 285 2.0 2.0 0.00 0.03 0.03 49 1012.1
20260502182018 47 268 4.0 5.0 0.00 0.03 0.03 52 1012.2
20260502181516 47 334 1.0 2.0 0.00 0.03 0.03 52 1012.2
20260502181015 48 274 4.0 5.0 0.00 0.03 0.03 49 1012.3
20260502180511 49 303 4.0 6.0 0.00 0.03 0.03 52 1012.1
20260502170430 47 270 4.0 5.0 0.00 0.03 0.03 56 1012.3
20260502163914 47 195 6.0 8.0 0.00 0.03 0.03 52 1012.2
20260502163410 48 7 2.0 2.0 0.00 0.03 0.03 55 1012.2
20260502162908 47 290 3.0 3.0 0.00 0.03 0.03 58 1012.4
20260502162404 48 284 3.0 3.0 0.00 0.03 0.03 55 1012.5
20260502161901 48 267 3.0 3.0 0.00 0.03 0.03 55 1012.6
20260502161357 48 1 3.0 5.0 0.00 0.03 0.03 58 1012.8
20260502160855 47 302 3.0 3.0 0.00 0.03 0.03 58 1012.6
20260502160353 49 291 5.0 6.0 0.00 0.03 0.03 57 1012.4
20260502152334 47 300 3.0 3.0 0.00 0.03 0.03 65 1012.8
20260502151832 49 350 3.0 5.0 0.00 0.03 0.03 58 1012.6
20260502151328 47 338 4.0 5.0 0.00 0.03 0.03 60 1012.4
20260502150826 46 35 1.0 2.0 0.00 0.03 0.03 64 1012.4
20260502150322 47 272 5.0 6.0 0.00 0.03 0.03 60 1012.6
20260502130710 42 301 2.0 3.0 0.00 0.03 0.03 82 1013.0
20260502130208 42 252 7.0 9.0 0.00 0.03 0.03 85 1013.2
20260502123654 40 3 1.0 1.0 0.00 0.03 0.03 93 1012.9
20260502123150 40 337 1.0 1.0 0.00 0.03 0.03 93 1013.0
20260502122647 40 312 1.0 2.0 0.00 0.03 0.03 92 1012.9
20260502122143 40 356 1.0 1.0 0.00 0.03 0.03 93 1013.0
20260502121642 40 254 2.0 2.0 0.00 0.03 0.03 93 1012.5
20260502121139 40 316 2.0 2.0 0.00 0.03 0.03 95 1012.8
20260502120635 39 348 2.0 2.0 0.00 0.03 0.03 95 1012.8
20260502120132 39 347 1.0 1.0 0.00 0.03 0.03 96 1012.4
20260502115630 39 320 1.0 1.0 0.00 0.03 0.03 96 1012.9
20260502115126 39 51 1.0 1.0 0.00 0.03 0.03 96 1012.9
20260502114622 39 313 2.0 2.0 0.00 0.03 0.03 96 1013.0
20260502114120 39 277 2.0 2.0 0.00 0.03 0.03 96 1012.9
20260502113617 39 304 3.0 3.0 0.00 0.03 0.03 96 1012.9
20260502113115 39 303 4.0 5.0 0.00 0.03 0.03 96 1013.1
20260502112613 39 306 3.0 3.0 0.00 0.03 0.03 96 1013.3
20260502112110 38 276 3.0 3.0 0.00 0.03 0.03 96 1012.9
20260502111608 38 332 1.0 1.0 0.00 0.03 0.03 97 1013.0
20260502111105 38 295 1.0 2.0 0.00 0.03 0.03 97 1012.6
20260502110602 38 347 2.0 2.0 0.00 0.03 0.03 96 1012.9
20260502110059 38 328 1.0 1.0 0.00 0.03 0.03 96 1013.1
20260502105557 38 346 1.0 1.0 0.00 0.03 0.03 96 1012.4
20260502105054 38 98 3.0 5.0 0.00 0.03 0.03 96 1012.6
20260502104551 38 347 1.0 1.0 0.00 0.03 0.03 96 1012.6
20260502104048 38 350 2.0 2.0 0.00 0.03 0.03 96 1012.4
20260502103546 38 350 0.0 0.0 0.00 0.03 0.03 96 1012.4
20260502103044 38 33 3.0 3.0 0.00 0.03 0.03 96 1012.5
20260502102540 38 358 0.0 0.0 0.00 0.03 0.03 96 1012.8
20260502102037 38 347 1.0 1.0 0.00 0.03 0.03 97 1012.6
20260502101535 38 357 2.0 2.0 0.00 0.03 0.03 97 1012.2
20260502101033 38 349 1.0 1.0 0.00 0.03 0.03 97 1012.3
20260502100531 38 314 1.0 1.0 0.00 0.03 0.03 97 1012.1
20260502091506 39 320 1.0 1.0 0.00 0.03 0.03 99 1011.7
20260502091003 39 328 1.0 1.0 0.00 0.03 0.03 99 1011.4
20260502090500 39 352 0.0 1.0 0.00 0.03 0.03 99 1011.4
20260502071355 41 313 2.0 2.0 0.00 0.03 0.03 99 1011.1
20260502070853 41 335 1.0 1.0 0.00 0.03 0.03 99 1010.9
20260502070350 41 273 2.0 2.0 0.00 0.03 0.03 99 1011.1
20260502065849 41 327 1.0 1.0 0.00 0.03 0.03 99 1011.2
20260502065347 41 340 2.0 2.0 0.00 0.03 0.03 99 1011.3
20260502064844 42 332 3.0 3.0 0.00 0.03 0.03 99 1011.2
20260502064342 42 341 1.0 1.0 0.00 0.03 0.03 99 1011.1
20260502063839 42 343 0.0 0.0 0.00 0.03 0.03 99 1011.2
20260502063337 42 339 1.0 1.0 0.00 0.03 0.03 99 1011.3
20260502062834 42 310 1.0 1.0 0.00 0.03 0.03 99 1011.3
20260502062331 42 343 0.0 0.0 0.00 0.03 0.03 99 1011.2
20260502061830 42 345 0.0 0.0 0.00 0.03 0.03 99 1011.2
20260502061328 42 353 0.0 0.0 0.00 0.03 0.03 99 1011.2
20260502060823 42 333 1.0 1.0 0.00 0.03 0.03 99 1011.4
20260502060318 42 357 0.0 0.0 0.00 0.03 0.03 99 1011.3
20260502055816 42 357 0.0 0.0 0.00 0.03 0.03 99 1011.6
20260502055314 42 13 1.0 1.0 0.00 0.03 0.03 99 1011.4
20260502054814 42 19 1.0 1.0 0.00 0.03 0.03 99 1011.7
20260502054311 42 317 1.0 1.0 0.05 0.03 0.03 99 1011.6
20260502053808 42 332 0.0 1.0 0.00 0.02 0.02 99 1011.5
20260502053305 42 331 1.0 1.0 0.00 0.02 0.02 99 1011.4
20260502052803 42 4 0.0 0.0 0.00 0.02 0.02 99 1011.5
20260502052300 42 349 0.0 0.0 0.00 0.02 0.02 99 1011.3
20260502051758 43 343 0.0 0.0 0.00 0.02 0.02 99 1011.6
20260502051257 42 13 1.0 1.0 0.00 0.02 0.02 99 1011.7
20260502050752 42 332 1.0 1.0 0.00 0.02 0.02 99 1011.6
20260502050248 42 342 0.0 0.0 0.00 0.02 0.02 99 1011.7
20260502045746 42 341 0.0 0.0 0.00 0.02 0.02 99 1011.5
20260502045243 42 346 0.0 0.0 0.00 0.02 0.02 99 1011.6
20260502044739 42 344 0.0 0.0 0.00 0.02 0.02 99 1011.6
20260502044235 42 352 0.0 0.0 0.00 0.02 0.02 99 1011.6
20260502043733 42 351 0.0 0.0 0.07 0.02 0.02 99 1011.7
20260502043231 42 351 0.0 0.0 0.07 0.02 0.02 99 1011.6
20260502042730 42 351 0.0 0.0 0.05 0.01 0.01 99 1011.5
20260502042228 42 351 0.0 0.0 0.05 0.01 0.01 99 1011.7
20260502041725 42 351 0.0 0.0 0.00 0.00 0.00 99 1011.7
20260502041222 43 2 0.0 0.0 0.00 0.00 0.00 99 1011.5
20260502040719 42 351 0.0 0.0 0.00 0.00 0.00 99 1011.8
20260502040216 42 8 0.0 0.0 0.00 0.00 0.00 99 1011.6
20260502035712 42 9 0.0 0.0 0.07 0.08 0.08 99 1011.7
20260502035209 42 10 0.0 1.0 0.07 0.08 0.08 99 1011.7
20260502034707 42 6 0.0 0.0 0.00 0.07 0.07 99 1011.6
20260502034205 42 10 0.0 0.0 0.07 0.07 0.07 99 1011.7
20260502033702 42 341 0.0 1.0 0.07 0.07 0.07 99 1011.8
20260502033200 42 351 0.0 0.0 0.00 0.06 0.06 99 1011.7
20260502032656 42 351 0.0 0.0 0.00 0.06 0.06 99 1011.7
20260502032152 42 351 0.0 0.0 0.00 0.06 0.06 99 1011.6
20260502031650 42 346 0.0 0.0 0.00 0.06 0.06 99 1011.7
20260502031148 42 344 0.0 1.0 0.00 0.06 0.06 99 1011.7
20260502030647 42 359 0.0 0.0 0.00 0.06 0.06 99 1011.3
20260502030144 42 359 0.0 0.0 0.00 0.06 0.06 99 1011.7
20260502025641 42 5 0.0 0.0 0.00 0.06 0.06 99 1011.7
20260502025139 42 6 0.0 0.0 0.00 0.06 0.06 99 1011.9
20260502024637 42 359 0.0 1.0 0.00 0.06 0.06 99 1011.8
20260502024134 42 7 0.0 0.0 0.00 0.06 0.06 99 1011.8
20260502023633 43 352 0.0 0.0 0.00 0.06 0.06 99 1012.0
20260502023129 43 351 1.0 1.0 0.00 0.06 0.06 99 1011.9
20260502022626 43 352 0.0 0.0 0.05 0.06 0.06 99 1012.0
20260502022124 43 352 0.0 0.0 0.05 0.06 0.06 99 1011.9
20260502021621 43 352 0.0 0.0 0.00 0.05 0.05 99 1012.2
20260502021118 43 346 0.0 0.0 0.00 0.05 0.05 99 1012.2
20260502020615 43 347 0.0 1.0 0.00 0.05 0.05 99 1012.2
20260502020112 43 358 0.0 0.0 0.00 0.05 0.05 99 1012.1
20260502015610 43 15 1.0 1.0 0.00 0.05 0.05 99 1012.2
20260502015106 43 13 1.0 1.0 0.00 0.05 0.05 99 1012.3
20260502014603 43 5 0.0 0.0 0.00 0.05 0.05 99 1012.3
20260502014100 43 3 0.0 0.0 0.07 0.05 0.05 99 1012.2
20260502013555 43 352 0.0 0.0 0.07 0.05 0.05 99 1012.1
20260502013052 43 327 1.0 1.0 0.05 0.04 0.04 99 1012.1
20260502012549 43 336 1.0 1.0 0.12 0.04 0.04 99 1012.3
20260502012047 43 357 0.0 0.0 0.07 0.03 0.03 99 1012.1
20260502011544 43 285 2.0 2.0 0.05 0.02 0.02 99 1012.5
20260502011040 43 265 2.0 2.0 0.05 0.02 0.02 99 1012.2
20260502010537 43 288 1.0 1.0 0.00 0.01 0.01 99 1012.0
20260502010033 44 347 1.0 1.0 0.00 0.01 0.01 98 1011.6
20260502005531 44 337 0.0 1.0 0.00 0.01 0.01 98 1011.8
20260502005029 44 351 0.0 0.0 0.00 0.01 0.01 98 1011.8
20260502004524 44 14 0.0 0.0 0.07 0.01 0.01 97 1012.0
20260502004021 44 354 0.0 0.0 0.00 0.00 0.00 97 1012.1
20260502003519 44 333 1.0 1.0 0.00 0.00 0.00 96 1011.8
20260502003016 44 322 1.0 1.0 0.00 0.00 0.00 96 1011.8
20260502002512 44 267 2.0 2.0 0.00 0.00 0.00 95 1011.8
20260502002010 45 328 1.0 1.0 0.00 0.00 0.00 94 1011.9
20260502001507 45 316 2.0 2.0 0.00 0.00 0.00 93 1011.9
20260502001005 45 257 1.0 2.0 0.00 0.00 0.00 93 1011.6
20260502000503 45 331 1.0 1.0 0.00 0.00 0.00 92 1011.6
20260501235959 45 325 1.0 1.0 0.00 0.00 0.00 91 1011.4
20260501235455 46 333 1.0 1.0 0.00 0.00 0.00 90 1011.4
20260501234950 46 326 1.0 1.0 0.00 0.00 0.00 88 1011.4
20260501234447 46 324 1.0 1.0 0.00 0.00 0.00 88 1011.4
20260501233946 46 333 1.0 1.0 0.00 0.00 0.00 86 1011.4
20260501233443 47 335 1.0 1.0 0.00 0.00 0.00 85 1011.2
20260501232938 47 328 0.0 1.0 0.00 0.00 0.00 84 1011.1
20260501232436 47 331 1.0 1.0 0.00 0.00 0.00 83 1011.0
20260501231933 47 326 1.0 1.0 0.00 0.00 0.00 82 1011.0
20260501231431 48 295 2.0 2.0 0.00 0.00 0.00 80 1011.0
20260501230929 48 320 1.0 1.0 0.00 0.00 0.00 79 1010.9
20260501230428 48 327 1.0 1.0 0.00 0.00 0.00 78 1011.0
20260501225925 48 326 2.0 2.0 0.00 0.00 0.00 77 1011.2
20260501225423 48 334 1.0 1.0 0.00 0.00 0.00 76 1011.0
20260501224918 49 304 2.0 2.0 0.00 0.00 0.00 75 1011.0
20260501224416 49 284 1.0 1.0 0.00 0.00 0.00 73 1011.2
20260501223912 49 317 1.0 1.0 0.00 0.00 0.00 72 1011.1
20260501223408 49 329 1.0 1.0 0.00 0.00 0.00 71 1011.1
20260501222904 49 318 2.0 2.0 0.00 0.00 0.00 72 1011.0
20260501222402 49 279 2.0 2.0 0.00 0.00 0.00 73 1011.2
20260501221858 50 346 2.0 2.0 0.00 0.00 0.00 72 1011.0
20260501221355 50 259 4.0 5.0 0.00 0.00 0.00 70 1011.0
20260501220853 50 321 2.0 3.0 0.00 0.00 0.00 71 1011.0
20260501220350 50 332 1.0 2.0 0.00 0.00 0.00 69 1011.0
20260501215847 50 223 4.0 6.0 0.00 0.00 0.00 69 1011.0
20260501215343 50 243 2.0 2.0 0.00 0.00 0.00 70 1011.1
20260501214839 50 211 2.0 2.0 0.00 0.00 0.00 69 1011.0
20260501214334 50 335 1.0 1.0 0.00 0.00 0.00 70 1011.2
20260501213830 50 324 2.0 2.0 0.00 0.00 0.00 68 1011.1
20260501213327 50 353 2.0 3.0 0.00 0.00 0.00 67 1011.1
20260501212823 50 316 3.0 3.0 0.00 0.00 0.00 68 1011.0
20260501212320 51 222 5.0 6.0 0.00 0.00 0.00 65 1011.0
20260501211817 51 327 2.0 2.0 0.00 0.00 0.00 65 1011.0
20260501211314 51 274 2.0 2.0 0.00 0.00 0.00 66 1010.9
20260501210810 51 344 0.0 1.0 0.00 0.00 0.00 66 1010.8
20260501210308 50 350 0.0 0.0 0.00 0.00 0.00 65 1011.0
20260501205804 51 265 3.0 3.0 0.00 0.00 0.00 65 1010.9
20260501205301 51 255 3.0 3.0 0.00 0.00 0.00 62 1010.8
20260501204758 51 246 5.0 6.0 0.00 0.00 0.00 63 1010.9
20260501204254 51 298 2.0 2.0 0.00 0.00 0.00 62 1010.8
20260501203750 51 300 2.0 2.0 0.00 0.00 0.00 64 1010.8
20260501203248 51 22 0.0 0.0 0.00 0.00 0.00 68 1010.8
20260501202745 51 148 3.0 3.0 0.00 0.00 0.00 65 1010.7
20260501202242 52 227 9.0 9.0 0.00 0.00 0.00 58 1010.8
20260501201739 52 292 3.0 3.0 0.00 0.00 0.00 58 1010.6
20260501201236 52 302 3.0 3.0 0.00 0.00 0.00 59 1010.8
20260501200732 53 232 5.0 9.0 0.00 0.00 0.00 54 1010.3
20260501200229 53 308 3.0 3.0 0.00 0.00 0.00 52 1010.6
20260501195727 53 284 3.0 3.0 0.00 0.00 0.00 52 1010.3
20260501195223 54 236 4.0 6.0 0.00 0.00 0.00 52 1010.2
20260501194719 54 314 0.0 1.0 0.00 0.00 0.00 51 1010.3
20260501194214 53 168 2.0 2.0 0.00 0.00 0.00 51 1010.3
20260501193711 53 324 1.0 1.0 0.00 0.00 0.00 53 1010.2
20260501193210 53 290 2.0 2.0 0.00 0.00 0.00 52 1010.6
20260501192707 53 161 3.0 3.0 0.00 0.00 0.00 52 1010.6
20260501192204 53 317 0.0 1.0 0.00 0.00 0.00 51 1010.3
20260501191701 54 302 3.0 3.0 0.00 0.00 0.00 52 1010.7
20260501191159 54 249 5.0 6.0 0.00 0.00 0.00 52 1010.8
20260501190655 54 292 2.0 2.0 0.00 0.00 0.00 52 1010.6
20260501190150 55 223 2.0 3.0 0.00 0.00 0.00 54 1010.3
20260501185646 54 111 3.0 3.0 0.00 0.00 0.00 50 1010.4
20260501185142 54 13 0.0 1.0 0.00 0.00 0.00 51 1010.6
20260501184638 53 294 3.0 3.0 0.00 0.00 0.00 53 1010.6
20260501184133 53 313 1.0 1.0 0.00 0.00 0.00 52 1010.6
20260501183630 55 354 3.0 3.0 0.00 0.00 0.00 52 1010.7
20260501183127 54 273 4.0 5.0 0.00 0.00 0.00 51 1010.9